Location: Shandelee
(41.8790°N, 74.8713°W)
Time: 13:40:09
(UTC+00:00)

Aureole 3 - Pass Details

Date: 29 October 2020
Orbit: 382 x 1231 km, 82.5° (Epoch: 01 December)

Event Time Altitude Azimuth Distance (km) Brightness Sun altitude
Rises 22:31:24 0° 176° (S) 2,412 6.7 -7.0°
Reaches altitude 10° 22:33:33 10° 170° (S) 1,480 5.6 -7.4°
Maximum altitude 22:36:34 46° 95° (E) 532 2.9 -8.0°
Drops below altitude 10° 22:39:26 10° 20° (NNE) 1,413 5.1 -8.5°
Sets 22:41:26 0° 14° (NNE) 2,285 6.2 -8.9°
